sat.trackr.live / text

‹ back to catalog

STARLINK-31943

NORAD 59878 · 2024-098W

PAYLOAD ACTIVE UNKNOWN

§ Identity

Operator
Country
US
Launch date
2024-05-24
Launch site
AFETR
Launch vehicle
Mass (kg)
RCS (m²)

Purposes: comms

External: N2YO · Heavens-Above · Gunter

§ Orbital elements

Epoch: 2026-05-25T04:17:02.690304Z

Period
93.47 min
Inclination
42.9971°
Eccentricity
0.0012834
Mean motion
15.40590363 rev/d
Perigee alt
435.6 km
Apogee alt
453.1 km
Semi-major
6,822.5 km
B*
1.6869e-3
RAAN
205.1947°
Arg perigee
42.1334°
Mean anomaly
318.0507°
Rev number
11,290

§ Raw data

STARLINK-319431 59878U 24098W   26145.17850336  .00070747  00000+0  16869-2 0  99972 59878  42.9971 205.1947 0012834  42.1334 318.0507 15.40590363112907

JSON: /api/v1/satellites/59878 · /tle

For live sub-satellite position, see the globe view (requires WebGL).

§ Visibility from observer

Set your observer location to see the next 7 days of passes ≥ 10°. The values pass through the URL so the page stays shareable.

No JS? Fill the form by hand. The geolocation button needs JavaScript.